Time,TemperatureF,DewpointF,PressureIn,WindDirection,WindDirectionDegrees,WindSpeedMPH,WindSpeedGustMPH,Humidity,HourlyPrecipIn,Conditions,Clouds,dailyrainin,SoftwareType,DateUTC
2013-02-18 00:05:00,16.6,2.0,29.59,West,279,6.0,16.0,53,0.00,,,0.00,weatherlink.com 1.10,2013-02-18 05:05:00,
2013-02-18 00:20:00,16.4,1.0,29.59,WNW,291,4.0,17.0,52,0.00,,,0.00,weatherlink.com 1.10,2013-02-18 05:20:00,
2013-02-18 00:36:00,16.3,2.0,29.59,North,360,4.0,14.0,53,0.00,,,0.00,weatherlink.com 1.10,2013-02-18 05:36:00,
2013-02-18 00:50:00,16.3,2.0,29.60,WNW,285,1.0,18.0,53,0.00,,,0.00,weatherlink.com 1.10,2013-02-18 05:50:00,
2013-02-18 01:05:00,16.2,2.0,29.61,SE,144,2.0,16.0,54,0.00,,,0.00,weatherlink.com 1.10,2013-02-18 06:05:00,
2013-02-18 01:20:00,16.2,2.0,29.61,WNW,284,5.0,19.0,53,0.00,,,0.00,weatherlink.com 1.10,2013-02-18 06:20:00,
2013-02-18 01:35:00,16.1,2.0,29.62,North,350,3.0,12.0,53,0.00,,,0.00,weatherlink.com 1.10,2013-02-18 06:35:00,
2013-02-18 01:50:00,16.0,2.0,29.62,WSW,250,1.0,14.0,53,0.00,,,0.00,weatherlink.com 1.10,2013-02-18 06:50:00,
2013-02-18 02:07:00,15.9,1.0,29.63,NNE,24,3.0,11.0,53,0.00,,,0.00,weatherlink.com 1.10,2013-02-18 07:07:00,
2013-02-18 02:21:00,15.8,1.0,29.63,NNE,28,3.0,19.0,53,0.00,,,0.00,weatherlink.com 1.10,2013-02-18 07:21:00,
2013-02-18 02:36:00,15.7,2.0,29.64,West,262,3.0,15.0,54,0.00,,,0.00,weatherlink.com 1.10,2013-02-18 07:36:00,
2013-02-18 02:51:00,15.6,2.0,29.64,NW,315,4.0,21.0,54,0.00,,,0.00,weatherlink.com 1.10,2013-02-18 07:51:00,
2013-02-18 03:06:00,15.6,2.0,29.66,NNE,19,3.0,17.0,54,0.00,,,0.00,weatherlink.com 1.10,2013-02-18 08:06:00,
2013-02-18 03:21:00,15.6,2.0,29.66,West,265,8.0,17.0,54,0.00,,,0.00,weatherlink.com 1.10,2013-02-18 08:21:00,
2013-02-18 03:36:00,15.5,2.0,29.67,WSW,257,3.0,10.0,55,0.00,,,0.00,weatherlink.com 1.10,2013-02-18 08:36:00,
2013-02-18 03:51:00,15.3,2.0,29.68,West,274,6.0,10.0,55,0.00,,,0.00,weatherlink.com 1.10,2013-02-18 08:51:00,
2013-02-18 04:06:00,15.3,1.0,29.69,WSW,258,2.0,6.0,54,0.00,,,0.00,weatherlink.com 1.10,2013-02-18 09:06:00,
2013-02-18 04:21:00,15.3,2.0,29.70,North,5,2.0,7.0,55,0.00,,,0.00,weatherlink.com 1.10,2013-02-18 09:21:00,
2013-02-18 04:36:00,15.3,2.0,29.71,West,272,3.0,12.0,55,0.00,,,0.00,weatherlink.com 1.10,2013-02-18 09:36:00,
2013-02-18 04:51:00,15.4,2.0,29.72,North,11,5.0,13.0,55,0.00,,,0.00,weatherlink.com 1.10,2013-02-18 09:51:00,
2013-02-18 05:06:00,15.6,2.0,29.73,NNE,13,5.0,11.0,55,0.00,,,0.00,weatherlink.com 1.10,2013-02-18 10:06:00,
2013-02-18 05:21:00,15.5,1.0,29.73,NW,317,3.0,17.0,54,0.00,,,0.00,weatherlink.com 1.10,2013-02-18 10:21:00,
2013-02-18 05:36:00,15.2,2.0,29.75,NNE,14,6.0,7.0,55,0.00,,,0.00,weatherlink.com 1.10,2013-02-18 10:36:00,
2013-02-18 05:51:00,15.0,1.0,29.76,SSW,211,4.0,11.0,55,0.00,,,0.00,weatherlink.com 1.10,2013-02-18 10:51:00,
2013-02-18 06:07:00,14.8,1.0,29.77,WNW,291,0.0,13.0,55,0.00,,,0.00,weatherlink.com 1.10,2013-02-18 11:07:00,
2013-02-18 06:21:00,14.6,1.0,29.77,WSW,253,3.0,8.0,55,0.00,,,0.00,weatherlink.com 1.10,2013-02-18 11:21:00,
2013-02-18 06:36:00,14.4,1.0,29.78,WNW,283,2.0,13.0,55,0.00,,,0.00,weatherlink.com 1.10,2013-02-18 11:36:00,
2013-02-18 06:52:00,14.5,1.0,29.80,NNE,27,3.0,10.0,55,0.00,,,0.00,weatherlink.com 1.10,2013-02-18 11:52:00,
2013-02-18 07:06:00,14.6,1.0,29.81,ENE,69,0.0,10.0,55,0.00,,,0.00,weatherlink.com 1.10,2013-02-18 12:06:00,
2013-02-18 07:21:00,15.0,1.0,29.82,West,273,2.0,11.0,54,0.00,,,0.00,weatherlink.com 1.10,2013-02-18 12:21:00,
2013-02-18 07:36:00,15.8,3.0,29.82,WSW,238,2.0,8.0,56,0.00,,,0.00,weatherlink.com 1.10,2013-02-18 12:36:00,
2013-02-18 07:52:00,16.2,2.0,29.83,ESE,112,4.0,11.0,54,0.00,,,0.00,weatherlink.com 1.10,2013-02-18 12:52:00,
2013-02-18 08:07:00,16.6,2.0,29.84,WNW,292,1.0,9.0,52,0.00,,,0.00,weatherlink.com 1.10,2013-02-18 13:07:00,
2013-02-18 08:22:00,17.2,1.0,29.85,WNW,303,6.0,13.0,50,0.00,,,0.00,weatherlink.com 1.10,2013-02-18 13:22:00,
2013-02-18 08:37:00,18.0,2.0,29.86,NNE,26,2.0,15.0,50,0.00,,,0.00,weatherlink.com 1.10,2013-02-18 13:37:00,
2013-02-18 08:52:00,18.7,3.0,29.86,South,169,1.0,20.0,51,0.00,,,0.00,weatherlink.com 1.10,2013-02-18 13:52:00,
2013-02-18 09:07:00,19.3,3.0,29.85,North,360,8.0,12.0,50,0.00,,,0.00,weatherlink.com 1.10,2013-02-18 14:07:00,
2013-02-18 09:22:00,20.0,3.0,29.86,NW,305,5.0,14.0,48,0.00,,,0.00,weatherlink.com 1.10,2013-02-18 14:22:00,
2013-02-18 09:52:00,25.6,4.0,29.87,WNW,288,1.0,20.0,40,0.00,,,0.00,weatherlink.com 1.10,2013-02-18 14:52:00,
2013-02-18 10:07:00,28.5,4.0,29.88,NNW,344,6.0,17.0,35,0.00,,,0.00,weatherlink.com 1.10,2013-02-18 15:07:00,
2013-02-18 10:22:00,31.2,5.0,29.88,SE,124,8.0,13.0,33,0.00,,,0.00,weatherlink.com 1.10,2013-02-18 15:22:00,
2013-02-18 10:38:00,31.5,3.0,29.88,North,350,3.0,19.0,30,0.00,,,0.00,weatherlink.com 1.10,2013-02-18 15:38:00,
2013-02-18 10:52:00,33.1,4.0,29.88,NW,324,1.0,9.0,29,0.00,,,0.00,weatherlink.com 1.10,2013-02-18 15:52:00,
2013-02-18 11:08:00,32.9,3.0,29.88,South,181,5.0,16.0,28,0.01,,,0.01,weatherlink.com 1.10,2013-02-18 16:08:00,
2013-02-18 11:22:00,33.9,5.0,29.87,NE,47,6.0,14.0,29,0.02,,,0.02,weatherlink.com 1.10,2013-02-18 16:22:00,
2013-02-18 11:37:00,34.3,4.0,29.87,NW,314,3.0,17.0,28,0.03,,,0.03,weatherlink.com 1.10,2013-02-18 16:37:00,
2013-02-18 11:52:00,33.6,1.0,29.88,South,173,7.0,15.0,25,0.04,,,0.04,weatherlink.com 1.10,2013-02-18 16:52:00,
2013-02-18 12:08:00,33.3,3.0,29.88,WNW,286,1.0,20.0,28,0.03,,,0.04,weatherlink.com 1.10,2013-02-18 17:08:00,
2013-02-18 12:23:00,33.1,1.0,29.88,WNW,286,3.0,13.0,25,0.03,,,0.05,weatherlink.com 1.10,2013-02-18 17:23:00,
2013-02-18 12:37:00,34.0,3.0,29.88,SE,140,3.0,13.0,27,0.02,,,0.05,weatherlink.com 1.10,2013-02-18 17:37:00,
2013-02-18 12:53:00,34.5,3.0,29.88,South,184,11.0,14.0,26,0.01,,,0.05,weatherlink.com 1.10,2013-02-18 17:53:00,
2013-02-18 13:08:00,34.3,3.0,29.88,North,5,10.0,13.0,27,0.01,,,0.05,weatherlink.com 1.10,2013-02-18 18:08:00,
2013-02-18 13:22:00,34.6,1.0,29.88,NNE,20,5.0,20.0,24,0.00,,,0.05,weatherlink.com 1.10,2013-02-18 18:22:00,
2013-02-18 13:37:00,35.2,3.0,29.89,WNW,286,1.0,13.0,25,0.00,,,0.05,weatherlink.com 1.10,2013-02-18 18:37:00,
2013-02-18 13:53:00,35.7,4.0,29.89,ESE,105,3.0,15.0,26,0.00,,,0.05,weatherlink.com 1.10,2013-02-18 18:53:00,
2013-02-18 14:08:00,34.7,2.0,29.90,North,5,6.0,14.0,25,0.00,,,0.05,weatherlink.com 1.10,2013-02-18 19:08:00,
2013-02-18 14:23:00,34.6,1.0,29.90,ESE,103,2.0,15.0,24,0.00,,,0.05,weatherlink.com 1.10,2013-02-18 19:23:00,
2013-02-18 14:54:00,34.3,2.0,29.90,West,277,7.0,12.0,25,0.00,,,0.05,weatherlink.com 1.10,2013-02-18 19:54:00,
2013-02-18 15:08:00,34.1,2.0,29.90,NNE,13,7.0,15.0,25,0.00,,,0.05,weatherlink.com 1.10,2013-02-18 20:08:00,
2013-02-18 15:23:00,33.7,-1.0,29.91,NW,309,7.0,19.0,23,0.00,,,0.05,weatherlink.com 1.10,2013-02-18 20:23:00,
2013-02-18 15:38:00,33.6,0.0,29.91,SSW,213,7.0,12.0,24,0.00,,,0.05,weatherlink.com 1.10,2013-02-18 20:38:00,
2013-02-18 15:53:00,33.1,0.0,29.92,SSW,192,6.0,10.0,24,0.00,,,0.05,weatherlink.com 1.10,2013-02-18 20:53:00,
2013-02-18 16:08:00,31.7,-2.0,29.93,SSW,195,5.0,9.0,23,0.00,,,0.05,weatherlink.com 1.10,2013-02-18 21:08:00,
2013-02-18 16:23:00,31.1,0.0,29.94,WSW,243,3.0,10.0,26,0.00,,,0.05,weatherlink.com 1.10,2013-02-18 21:23:00,
2013-02-18 16:38:00,30.6,-1.0,29.94,NNE,18,2.0,8.0,26,0.00,,,0.05,weatherlink.com 1.10,2013-02-18 21:38:00,
2013-02-18 16:53:00,30.3,0.0,29.94,WSW,250,0.0,10.0,27,0.00,,,0.05,weatherlink.com 1.10,2013-02-18 21:53:00,
2013-02-18 17:08:00,29.8,-1.0,29.95,NNE,24,2.0,6.0,27,0.00,,,0.05,weatherlink.com 1.10,2013-02-18 22:08:00,
2013-02-18 17:23:00,29.4,0.0,29.95,ENE,76,2.0,5.0,28,0.00,,,0.05,weatherlink.com 1.10,2013-02-18 22:23:00,
2013-02-18 17:39:00,28.9,-1.0,29.96,NW,320,1.0,6.0,28,0.00,,,0.05,weatherlink.com 1.10,2013-02-18 22:39:00,
2013-02-18 17:54:00,28.6,0.0,29.96,NNW,333,1.0,3.0,29,0.00,,,0.05,weatherlink.com 1.10,2013-02-18 22:54:00,
2013-02-18 18:08:00,27.9,0.0,29.97,West,273,1.0,3.0,30,0.00,,,0.05,weatherlink.com 1.10,2013-02-18 23:08:00,
2013-02-18 18:39:00,27.4,0.0,29.97,ESE,111,2.0,5.0,30,0.00,,,0.05,weatherlink.com 1.10,2013-02-18 23:39:00,
2013-02-18 18:54:00,27.5,-2.0,29.98,ESE,107,0.0,3.0,28,0.00,,,0.05,weatherlink.com 1.10,2013-02-18 23:54:00,
2013-02-18 19:09:00,27.3,-1.0,29.98,SE,128,0.0,2.0,30,0.00,,,0.05,weatherlink.com 1.10,2013-02-19 00:09:00,
2013-02-18 19:24:00,26.9,-2.0,29.98,SSE,158,0.0,2.0,29,0.00,,,0.05,weatherlink.com 1.10,2013-02-19 00:24:00,
2013-02-18 19:39:00,26.7,0.0,29.99,SE,127,1.0,3.0,32,0.00,,,0.05,weatherlink.com 1.10,2013-02-19 00:39:00,
2013-02-18 19:54:00,26.8,1.0,29.99,NNW,340,4.0,4.0,32,0.00,,,0.05,weatherlink.com 1.10,2013-02-19 00:54:00,
2013-02-18 20:09:00,26.0,0.0,30.00,SSW,200,0.0,2.0,33,0.00,,,0.05,weatherlink.com 1.10,2013-02-19 01:09:00,
2013-02-18 20:24:00,25.7,1.0,30.00,SSE,168,0.0,2.0,34,0.00,,,0.05,weatherlink.com 1.10,2013-02-19 01:24:00,
2013-02-18 20:40:00,25.3,1.0,30.00,South,188,1.0,3.0,35,0.00,,,0.05,weatherlink.com 1.10,2013-02-19 01:40:00,
2013-02-18 20:54:00,24.4,3.0,30.01,SSW,193,1.0,2.0,40,0.00,,,0.05,weatherlink.com 1.10,2013-02-19 01:54:00,
2013-02-18 21:09:00,24.1,2.0,30.01,SE,145,0.0,6.0,39,0.00,,,0.05,weatherlink.com 1.10,2013-02-19 02:09:00,
2013-02-18 21:24:00,23.5,4.0,30.01,SE,134,1.0,1.0,43,0.00,,,0.05,weatherlink.com 1.10,2013-02-19 02:24:00,
2013-02-18 21:39:00,23.2,5.0,30.02,ESE,109,1.0,2.0,45,0.00,,,0.05,weatherlink.com 1.10,2013-02-19 02:39:00,
2013-02-18 21:55:00,22.7,6.0,30.01,SE,140,0.0,2.0,48,0.00,,,0.05,weatherlink.com 1.10,2013-02-19 02:55:00,
2013-02-18 22:10:00,22.1,5.0,30.02,SE,146,0.0,2.0,47,0.00,,,0.05,weatherlink.com 1.10,2013-02-19 03:10:00,
2013-02-18 22:25:00,21.6,4.0,30.02,South,170,0.0,2.0,47,0.00,,,0.05,weatherlink.com 1.10,2013-02-19 03:25:00,
2013-02-18 22:40:00,21.8,4.0,30.04,SSW,208,2.0,6.0,46,0.00,,,0.05,weatherlink.com 1.10,2013-02-19 03:40:00,
2013-02-18 22:55:00,22.4,4.0,30.04,South,180,1.0,2.0,46,0.00,,,0.05,weatherlink.com 1.10,2013-02-19 03:55:00,
2013-02-18 23:10:00,22.1,5.0,30.04,SSE,147,0.0,3.0,48,0.00,,,0.05,weatherlink.com 1.10,2013-02-19 04:10:00,
2013-02-18 23:25:00,21.4,5.0,30.04,SE,126,0.0,2.0,50,0.00,,,0.05,weatherlink.com 1.10,2013-02-19 04:25:00,
2013-02-18 23:40:00,20.7,6.0,30.04,SE,126,0.0,2.0,52,0.00,,,0.05,weatherlink.com 1.10,2013-02-19 04:40:00,
2013-02-18 23:55:00,20.3,5.0,30.04,South,191,0.0,3.0,51,0.00,,,0.05,weatherlink.com 1.10,2013-02-19 04:55:00,